Radiation Dose at Monitoring Post of Fukushima Daini Nuclear Power Station
Date,Time,MP-1(microSv/h),MP-2(microSv/h),MP-3(microSv/h),MP-4(microSv/h),MP-5(microSv/h),MP-6(microSv/h),MP-7(microSv/h),Wind Direction,Wind Velocity(m/s),Rain
2017/12/09,00:00,0.336,0.211,0.346,0.326,0.310,0.172,0.101,north,7.4,No
2017/12/09,00:10,0.337,0.211,0.344,0.325,0.311,0.170,0.102,north,7.8,No
2017/12/09,00:20,0.335,0.212,0.343,0.328,0.311,0.171,0.101,north,7.3,No
2017/12/09,00:30,0.335,0.211,0.345,0.326,0.312,0.171,0.102,north,7.0,No
2017/12/09,00:40,0.334,0.212,0.345,0.324,0.310,0.171,0.101,north,5.7,No
2017/12/09,00:50,0.335,0.210,0.345,0.324,0.311,0.171,0.102,north,4.0,No
2017/12/09,01:00,0.335,0.212,0.344,0.325,0.312,0.171,0.102,north-northwest,3.3,No
2017/12/09,01:10,0.335,0.212,0.345,0.326,0.309,0.170,0.101,north-northwest,3.6,No
2017/12/09,01:20,0.334,0.210,0.344,0.325,0.309,0.170,0.102,north,4.8,No
2017/12/09,01:30,0.335,0.211,0.345,0.324,0.312,0.171,0.101,north,5.1,No
2017/12/09,01:40,0.334,0.210,0.345,0.324,0.310,0.170,0.101,north,4.1,No
2017/12/09,01:50,0.334,0.211,0.344,0.324,0.309,0.169,0.102,north,4.1,No
2017/12/09,02:00,0.334,0.211,0.346,0.326,0.309,0.171,0.101,north,4.1,No
2017/12/09,02:10,0.334,0.210,0.344,0.325,0.309,0.170,0.101,north-northwest,3.7,No
2017/12/09,02:20,0.335,0.211,0.345,0.325,0.310,0.171,0.102,north-northwest,3.3,No
2017/12/09,02:30,0.336,0.211,0.344,0.325,0.309,0.170,0.102,north-northwest,3.4,No
2017/12/09,02:40,0.336,0.211,0.345,0.326,0.311,0.170,0.100,north-northwest,3.4,No
2017/12/09,02:50,0.336,0.211,0.344,0.324,0.310,0.171,0.102,north,3.2,No
2017/12/09,03:00,0.335,0.211,0.345,0.325,0.311,0.171,0.101,north,4.3,No
2017/12/09,03:10,0.335,0.211,0.344,0.323,0.310,0.171,0.101,north-northwest,3.9,No
2017/12/09,03:20,0.336,0.211,0.345,0.325,0.309,0.171,0.101,north,3.8,No
2017/12/09,03:30,0.336,0.211,0.344,0.326,0.310,0.171,0.102,north,4.6,No
2017/12/09,03:40,0.335,0.212,0.345,0.326,0.310,0.171,0.102,north,4.9,No
2017/12/09,03:50,0.335,0.210,0.345,0.325,0.309,0.171,0.101,north-northwest,3.4,No
2017/12/09,04:00,0.334,0.211,0.345,0.323,0.310,0.170,0.101,north-northwest,2.8,No
2017/12/09,04:10,0.336,0.211,0.344,0.325,0.310,0.170,0.101,north-northwest,2.2,No
2017/12/09,04:20,0.335,0.211,0.344,0.325,0.309,0.171,0.102,north,1.4,No
2017/12/09,04:30,0.335,0.211,0.344,0.326,0.309,0.170,0.102,north,1.1,No
2017/12/09,04:40,0.336,0.212,0.344,0.325,0.311,0.170,0.102,-,CALM,No
2017/12/09,04:50,0.334,0.211,0.345,0.324,0.310,0.171,0.101,north,0.7,No
2017/12/09,05:00,0.334,0.209,0.345,0.325,0.309,0.171,0.101,north-northeast,1.4,No
2017/12/09,05:10,0.335,0.211,0.344,0.324,0.308,0.172,0.101,northeast,0.9,No
2017/12/09,05:20,0.335,0.211,0.344,0.327,0.310,0.169,0.102,north-northeast,2.7,No
2017/12/09,05:30,0.334,0.212,0.344,0.324,0.309,0.170,0.102,north-northeast,2.9,No
2017/12/09,05:40,0.335,0.210,0.343,0.324,0.309,0.170,0.101,north,2.9,No
2017/12/09,05:50,0.335,0.210,0.345,0.325,0.310,0.171,0.101,north,2.8,No
2017/12/09,06:00,0.333,0.211,0.344,0.325,0.309,0.171,0.101,north,2.6,No
2017/12/09,06:10,0.336,0.211,0.344,0.325,0.308,0.170,0.102,northwest,1.8,No
2017/12/09,06:20,0.334,0.211,0.345,0.324,0.310,0.171,0.101,northwest,0.8,No
2017/12/09,06:30,0.334,0.211,0.344,0.324,0.310,0.170,0.101,-,CALM,No
2017/12/09,06:40,0.334,0.210,0.346,0.326,0.308,0.171,0.102,-,CALM,No
2017/12/09,06:50,0.333,0.210,0.346,0.324,0.310,0.171,0.102,-,CALM,No
2017/12/09,07:00,0.335,0.210,0.345,0.324,0.310,0.170,0.101,-,CALM,No
2017/12/09,07:10,0.337,0.211,0.344,0.325,0.310,0.170,0.103,south-southeast,0.7,No
2017/12/09,07:20,0.335,0.213,0.345,0.324,0.309,0.171,0.101,south-southeast,0.9,No
2017/12/09,07:30,0.335,0.211,0.344,0.326,0.309,0.171,0.101,-,CALM,No
2017/12/09,07:40,0.334,0.211,0.345,0.325,0.308,0.171,0.102,south,1.2,No
2017/12/09,07:50,0.334,0.210,0.345,0.324,0.309,0.171,0.102,south-southwest,2.0,No
2017/12/09,08:00,0.335,0.211,0.344,0.324,0.311,0.170,0.102,southwest,3.2,No
2017/12/09,08:10,0.335,0.210,0.343,0.325,0.310,0.170,0.102,southwest,5.0,No
2017/12/09,08:20,0.336,0.212,0.345,0.325,0.308,0.171,0.101,southwest,5.1,No
2017/12/09,08:30,0.334,0.210,0.343,0.325,0.309,0.170,0.101,west-southwest,3.2,No
2017/12/09,08:40,0.333,0.211,0.344,0.324,0.310,0.170,0.100,west-southwest,5.7,No
2017/12/09,08:50,0.335,0.212,0.343,0.324,0.308,0.170,0.101,west-southwest,4.5,No
2017/12/09,09:00,0.334,0.211,0.343,0.324,0.308,0.169,0.100,west,4.5,No
2017/12/09,09:10,0.333,0.209,0.342,0.323,0.309,0.170,0.100,west-northwest,3.6,No
2017/12/09,09:20,0.334,0.209,0.344,0.324,0.310,0.169,0.101,southwest,5.1,No
2017/12/09,09:30,0.333,0.211,0.344,0.323,0.310,0.170,0.100,southwest,4.5,No
2017/12/09,09:40,0.334,0.211,0.345,0.324,0.309,0.170,0.101,southwest,4.3,No
2017/12/09,09:50,0.334,0.209,0.344,0.324,0.310,0.170,0.100,southwest,4.0,No
2017/12/09,10:00,0.333,0.210,0.345,0.324,0.308,0.170,0.102,west-northwest,2.2,No
2017/12/09,10:10,0.334,0.209,0.345,0.323,0.309,0.171,0.101,west-northwest,2.9,No
2017/12/09,10:20,0.335,0.209,0.343,0.324,0.310,0.170,0.101,west-northwest,2.4,No
2017/12/09,10:30,0.332,0.210,0.344,0.325,0.307,0.171,0.100,northwest,6.8,No
2017/12/09,10:40,0.333,0.210,0.343,0.323,0.310,0.172,0.101,west-northwest,5.4,No
2017/12/09,10:50,0.333,0.209,0.344,0.326,0.309,0.172,0.101,west-northwest,4.8,No
2017/12/09,11:00,0.333,0.210,0.345,0.325,0.311,0.171,0.101,northwest,5.2,No
2017/12/09,11:10,0.334,0.209,0.343,0.324,0.310,0.170,0.101,west-northwest,6.8,No
2017/12/09,11:20,0.334,0.209,0.344,0.325,0.309,0.170,0.101,west-northwest,5.3,No
2017/12/09,11:30,0.334,0.211,0.344,0.326,0.312,0.170,0.101,northwest,3.7,No
2017/12/09,11:40,0.334,0.212,0.343,0.324,0.309,0.171,0.101,north-northwest,3.8,No
2017/12/09,11:50,0.335,0.210,0.344,0.325,0.311,0.171,0.102,northwest,5.1,No
2017/12/09,12:00,0.335,0.211,0.346,0.325,0.313,0.171,0.101,north-northwest,3.7,No
2017/12/09,12:10,0.337,0.211,0.344,0.325,0.310,0.171,0.102,northwest,4.4,No
2017/12/09,12:20,0.335,0.211,0.343,0.326,0.312,0.171,0.101,north-northwest,3.3,No
2017/12/09,12:30,0.334,0.211,0.345,0.323,0.310,0.171,0.101,north-northwest,4.3,No
2017/12/09,12:40,0.335,0.210,0.345,0.326,0.311,0.171,0.101,west,2.2,No
2017/12/09,12:50,0.334,0.210,0.343,0.323,0.311,0.170,0.101,west-northwest,5.6,No
2017/12/09,13:00,0.334,0.211,0.345,0.325,0.310,0.171,0.102,west,4.3,No
2017/12/09,13:10,0.335,0.211,0.342,0.324,0.312,0.171,0.101,northwest,4.8,No
2017/12/09,13:20,0.334,0.211,0.345,0.326,0.312,0.171,0.102,northwest,4.2,No
2017/12/09,13:30,0.334,0.211,0.345,0.324,0.310,0.171,0.101,west-northwest,4.2,No
2017/12/09,13:40,0.335,0.212,0.345,0.326,0.314,0.170,0.101,northwest,2.7,No
2017/12/09,13:50,0.335,0.210,0.344,0.325,0.309,0.170,0.101,northwest,4.3,No
2017/12/09,14:00,0.334,0.211,0.346,0.324,0.313,0.169,0.100,-,CALM,No
2017/12/09,14:10,0.336,0.210,0.345,0.326,0.309,0.170,0.101,-,CALM,No
2017/12/09,14:20,0.335,0.211,0.344,0.325,0.311,0.170,0.102,west-northwest,3.6,No
2017/12/09,14:30,0.336,0.211,0.344,0.326,0.313,0.170,0.102,west,3.2,No
2017/12/09,14:40,0.338,0.210,0.345,0.326,0.311,0.170,0.101,west-northwest,5.1,No
2017/12/09,14:50,0.337,0.212,0.345,0.326,0.312,0.171,0.100,northwest,2.4,No
2017/12/09,15:00,0.335,0.212,0.345,0.325,0.313,0.171,0.102,west,2.6,No
2017/12/09,15:10,0.336,0.211,0.345,0.326,0.310,0.171,0.102,west-northwest,2.3,No
2017/12/09,15:20,0.337,0.211,0.344,0.327,0.311,0.171,0.101,west,2.7,No
2017/12/09,15:30,0.337,0.211,0.344,0.327,0.312,0.171,0.102,west,1.3,No
2017/12/09,15:40,0.335,0.212,0.345,0.327,0.311,0.172,0.102,west,2.0,No
2017/12/09,15:50,0.337,0.211,0.346,0.326,0.312,0.170,0.101,west,3.4,No
2017/12/09,16:00,0.336,0.211,0.345,0.327,0.312,0.171,0.102,west,2.1,No
2017/12/09,16:10,0.335,0.211,0.346,0.325,0.312,0.171,0.102,west-northwest,2.4,No
2017/12/09,16:20,0.336,0.211,0.346,0.326,0.312,0.171,0.102,west,2.6,No
2017/12/09,16:30,0.336,0.211,0.346,0.326,0.311,0.172,0.102,west,2.2,No
2017/12/09,16:40,0.336,0.211,0.346,0.328,0.312,0.171,0.102,west-southwest,2.9,No
2017/12/09,16:50,0.335,0.211,0.345,0.326,0.311,0.171,0.102,west-southwest,2.6,No
2017/12/09,17:00,0.335,0.212,0.346,0.325,0.311,0.171,0.102,west-southwest,3.2,No
2017/12/09,17:10,0.337,0.212,0.345,0.326,0.312,0.171,0.102,west-southwest,4.2,No
2017/12/09,17:20,0.338,0.210,0.345,0.325,0.312,0.172,0.101,west-southwest,5.6,No
2017/12/09,17:30,0.336,0.210,0.344,0.326,0.310,0.171,0.102,west-southwest,5.4,No
2017/12/09,17:40,0.335,0.212,0.346,0.326,0.311,0.172,0.101,west-southwest,6.7,No
2017/12/09,17:50,0.337,0.211,0.346,0.327,0.312,0.171,0.101,west,7.5,No
2017/12/09,18:00,0.335,0.212,0.346,0.326,0.310,0.172,0.101,west,7.9,No
2017/12/09,18:10,0.336,0.212,0.345,0.326,0.310,0.171,0.102,west,7.0,No
2017/12/09,18:20,0.335,0.211,0.346,0.326,0.310,0.171,0.101,west,7.3,No
2017/12/09,18:30,0.335,0.212,0.346,0.327,0.311,0.171,0.102,west,7.5,No
2017/12/09,18:40,0.336,0.211,0.346,0.328,0.311,0.171,0.101,west,7.6,No
2017/12/09,18:50,0.335,0.211,0.346,0.326,0.309,0.172,0.102,west,7.4,No
2017/12/09,19:00,0.336,0.211,0.346,0.327,0.311,0.172,0.102,west,7.7,No
2017/12/09,19:10,0.335,0.212,0.345,0.326,0.310,0.171,0.102,west,7.1,No
2017/12/09,19:20,0.336,0.211,0.345,0.327,0.311,0.171,0.102,west,6.8,No
2017/12/09,19:30,0.336,0.211,0.345,0.326,0.312,0.171,0.102,west,6.0,No
2017/12/09,19:40,0.337,0.211,0.345,0.327,0.311,0.172,0.101,west,5.9,No
2017/12/09,19:50,0.337,0.212,0.345,0.327,0.310,0.172,0.102,west-southwest,5.8,No
2017/12/09,20:00,0.337,0.211,0.345,0.326,0.311,0.171,0.102,west,5.3,No
2017/12/09,20:10,0.335,0.212,0.346,0.327,0.311,0.171,0.101,west,6.0,No
2017/12/09,20:20,0.336,0.211,0.346,0.327,0.311,0.172,0.102,west-southwest,6.2,No
2017/12/09,20:30,0.336,0.212,0.345,0.328,0.310,0.171,0.102,west-southwest,6.5,No
2017/12/09,20:40,0.337,0.212,0.345,0.326,0.312,0.172,0.102,southwest,7.0,No
2017/12/09,20:50,0.336,0.212,0.346,0.325,0.312,0.172,0.102,southwest,6.2,No
2017/12/09,21:00,0.337,0.211,0.348,0.326,0.312,0.172,0.101,southwest,6.2,No
2017/12/09,21:10,0.336,0.212,0.346,0.328,0.310,0.171,0.102,southwest,6.0,No
2017/12/09,21:20,0.337,0.211,0.347,0.326,0.311,0.172,0.102,southwest,5.9,No
2017/12/09,21:30,0.338,0.211,0.347,0.326,0.312,0.171,0.102,southwest,5.0,No
2017/12/09,21:40,0.335,0.211,0.347,0.326,0.311,0.170,0.102,west-southwest,4.8,No
2017/12/09,21:50,0.337,0.212,0.347,0.328,0.311,0.171,0.101,west-southwest,5.2,No
2017/12/09,22:00,0.336,0.212,0.346,0.328,0.311,0.172,0.103,southwest,6.2,No
2017/12/09,22:10,0.337,0.211,0.346,0.328,0.310,0.171,0.102,southwest,7.0,No
2017/12/09,22:20,0.339,0.211,0.347,0.327,0.312,0.172,0.102,southwest,7.1,No
2017/12/09,22:30,0.336,0.211,0.346,0.325,0.310,0.172,0.102,southwest,7.1,No
2017/12/09,22:40,0.335,0.212,0.346,0.326,0.309,0.172,0.102,south-southwest,6.5,No
2017/12/09,22:50,0.334,0.211,0.348,0.327,0.311,0.172,0.103,south-southwest,7.3,No
2017/12/09,23:00,0.336,0.212,0.346,0.325,0.310,0.171,0.102,south-southwest,6.8,No
2017/12/09,23:10,0.337,0.211,0.346,0.326,0.313,0.172,0.102,southwest,6.0,No
2017/12/09,23:20,0.336,0.212,0.346,0.325,0.310,0.173,0.103,south-southwest,6.8,No
2017/12/09,23:30,0.335,0.212,0.346,0.327,0.309,0.172,0.102,southwest,5.9,No
2017/12/09,23:40,0.336,0.211,0.347,0.326,0.310,0.170,0.102,southwest,5.4,No
2017/12/09,23:50,0.335,0.211,0.346,0.327,0.311,0.171,0.102,southwest,5.3,No
